Time,TemperatureF,DewpointF,PressureIn,WindDirection,WindDirectionDegrees,WindSpeedMPH,WindSpeedGustMPH,Humidity,HourlyPrecipIn,Conditions,Clouds,dailyrainin,SoftwareType,DateUTC
2013-02-15 00:01:00,33.3,28.0,30.09,SW,225,0.0,0.0,81,0.00,,,0.00,weatherlink.com 1.10,2013-02-15 05:01:00,
2013-02-15 00:16:00,32.8,28.0,30.09,SW,225,0.0,0.0,82,0.00,,,0.00,weatherlink.com 1.10,2013-02-15 05:16:00,
2013-02-15 00:31:00,32.0,28.0,30.09,SW,225,0.0,0.0,84,0.00,,,0.00,weatherlink.com 1.10,2013-02-15 05:31:00,
2013-02-15 00:46:00,31.2,27.0,30.10,SW,225,0.0,0.0,85,0.00,,,0.00,weatherlink.com 1.10,2013-02-15 05:46:00,
2013-02-15 01:01:00,31.3,28.0,30.10,SW,225,0.0,0.0,86,0.00,,,0.00,weatherlink.com 1.10,2013-02-15 06:01:00,
2013-02-15 01:16:00,31.4,28.0,30.11,SW,225,0.0,0.0,86,0.00,,,0.00,weatherlink.com 1.10,2013-02-15 06:16:00,
2013-02-15 01:31:00,30.9,27.0,30.11,SW,225,0.0,0.0,86,0.00,,,0.00,weatherlink.com 1.10,2013-02-15 06:31:00,
2013-02-15 01:47:00,30.3,27.0,30.11,SW,225,0.0,0.0,88,0.00,,,0.00,weatherlink.com 1.10,2013-02-15 06:47:00,
2013-02-15 02:02:00,29.6,27.0,30.11,SW,225,0.0,0.0,88,0.00,,,0.00,weatherlink.com 1.10,2013-02-15 07:02:00,
2013-02-15 02:17:00,29.3,27.0,30.11,SW,225,0.0,0.0,90,0.00,,,0.00,weatherlink.com 1.10,2013-02-15 07:17:00,
2013-02-15 02:32:00,29.1,27.0,30.10,SW,225,0.0,0.0,90,0.00,,,0.00,weatherlink.com 1.10,2013-02-15 07:32:00,
2013-02-15 02:47:00,29.1,27.0,30.10,SW,225,0.0,0.0,91,0.00,,,0.00,weatherlink.com 1.10,2013-02-15 07:47:00,
2013-02-15 03:02:00,29.0,27.0,30.10,SW,225,0.0,0.0,92,0.00,,,0.00,weatherlink.com 1.10,2013-02-15 08:02:00,
2013-02-15 03:17:00,28.7,26.0,30.09,SW,225,0.0,0.0,91,0.00,,,0.00,weatherlink.com 1.10,2013-02-15 08:17:00,
2013-02-15 03:32:00,28.0,26.0,30.09,SW,225,0.0,0.0,91,0.00,,,0.00,weatherlink.com 1.10,2013-02-15 08:32:00,
2013-02-15 03:47:00,27.7,26.0,30.09,SW,225,0.0,0.0,92,0.00,,,0.00,weatherlink.com 1.10,2013-02-15 08:47:00,
2013-02-15 04:02:00,29.0,28.0,30.08,SW,225,0.0,0.0,94,0.00,,,0.00,weatherlink.com 1.10,2013-02-15 09:02:00,
2013-02-15 04:17:00,28.9,27.0,30.09,SW,225,0.0,0.0,93,0.00,,,0.00,weatherlink.com 1.10,2013-02-15 09:17:00,
2013-02-15 04:32:00,29.4,28.0,30.10,NNE,32,0.0,1.0,93,0.00,,,0.00,weatherlink.com 1.10,2013-02-15 09:32:00,
2013-02-15 04:47:00,28.6,27.0,30.10,NNE,32,0.0,0.0,92,0.00,,,0.00,weatherlink.com 1.10,2013-02-15 09:47:00,
2013-02-15 05:02:00,28.8,27.0,30.10,NNE,32,0.0,1.0,93,0.00,,,0.00,weatherlink.com 1.10,2013-02-15 10:02:00,
2013-02-15 05:17:00,29.4,28.0,30.10,NNE,31,0.0,1.0,93,0.00,,,0.00,weatherlink.com 1.10,2013-02-15 10:17:00,
2013-02-15 05:32:00,29.2,27.0,30.09,NNE,32,0.0,0.0,92,0.00,,,0.00,weatherlink.com 1.10,2013-02-15 10:32:00,
2013-02-15 05:47:00,28.5,27.0,30.09,NNE,31,0.0,1.0,92,0.00,,,0.00,weatherlink.com 1.10,2013-02-15 10:47:00,
2013-02-15 06:02:00,28.1,26.0,30.09,NNE,31,0.0,0.0,93,0.00,,,0.00,weatherlink.com 1.10,2013-02-15 11:02:00,
2013-02-15 06:17:00,27.4,26.0,30.10,NNE,32,0.0,0.0,93,0.00,,,0.00,weatherlink.com 1.10,2013-02-15 11:17:00,
2013-02-15 06:32:00,27.2,26.0,30.11,NNE,32,0.0,0.0,94,0.00,,,0.00,weatherlink.com 1.10,2013-02-15 11:32:00,
2013-02-15 06:47:00,27.0,26.0,30.11,NNE,32,0.0,0.0,94,0.00,,,0.00,weatherlink.com 1.10,2013-02-15 11:47:00,
2013-02-15 07:02:00,27.1,26.0,30.11,NNE,31,0.0,0.0,94,0.00,,,0.00,weatherlink.com 1.10,2013-02-15 12:02:00,
2013-02-15 07:17:00,26.5,25.0,30.12,NNE,32,0.0,0.0,94,0.00,,,0.00,weatherlink.com 1.10,2013-02-15 12:17:00,
2013-02-15 07:32:00,26.6,25.0,30.12,NNE,31,0.0,0.0,95,0.00,,,0.00,weatherlink.com 1.10,2013-02-15 12:32:00,
2013-02-15 07:47:00,27.2,26.0,30.12,NNE,32,0.0,0.0,95,0.00,,,0.00,weatherlink.com 1.10,2013-02-15 12:47:00,
2013-02-15 08:02:00,27.6,26.0,30.13,NNE,32,0.0,0.0,95,0.00,,,0.00,weatherlink.com 1.10,2013-02-15 13:02:00,
2013-02-15 08:17:00,29.3,28.0,30.14,NNE,32,0.0,0.0,96,0.00,,,0.00,weatherlink.com 1.10,2013-02-15 13:17:00,
2013-02-15 08:32:00,31.2,30.0,30.14,NNE,22,0.0,1.0,96,0.00,,,0.00,weatherlink.com 1.10,2013-02-15 13:32:00,
2013-02-15 08:47:00,33.1,32.0,30.14,NNE,18,0.0,1.0,94,0.00,,,0.00,weatherlink.com 1.10,2013-02-15 13:47:00,
2013-02-15 09:02:00,36.0,33.0,30.14,ENE,58,0.0,1.0,88,0.00,,,0.00,weatherlink.com 1.10,2013-02-15 14:02:00,
2013-02-15 09:17:00,38.9,34.0,30.13,ESE,120,0.0,1.0,83,0.00,,,0.00,weatherlink.com 1.10,2013-02-15 14:17:00,
2013-02-15 09:32:00,41.1,35.0,30.13,SSW,203,0.0,1.0,78,0.00,,,0.00,weatherlink.com 1.10,2013-02-15 14:32:00,
2013-02-15 09:47:00,42.9,35.0,30.13,SW,221,2.0,2.0,74,0.00,,,0.00,weatherlink.com 1.10,2013-02-15 14:47:00,
2013-02-15 10:03:00,44.3,36.0,30.13,SSW,208,0.0,3.0,72,0.00,,,0.00,weatherlink.com 1.10,2013-02-15 15:03:00,
2013-02-15 10:18:00,45.6,37.0,30.12,SSW,197,0.0,2.0,71,0.00,,,0.00,weatherlink.com 1.10,2013-02-15 15:18:00,
2013-02-15 10:33:00,47.5,37.0,30.11,SW,218,1.0,4.0,66,0.00,,,0.00,weatherlink.com 1.10,2013-02-15 15:33:00,
2013-02-15 10:48:00,49.5,36.0,30.11,SE,134,0.0,4.0,60,0.00,,,0.00,weatherlink.com 1.10,2013-02-15 15:48:00,
2013-02-15 11:03:00,51.4,36.0,30.11,SSE,155,4.0,7.0,55,0.00,,,0.00,weatherlink.com 1.10,2013-02-15 16:03:00,
2013-02-15 11:18:00,52.6,34.0,30.10,SSE,167,6.0,8.0,50,0.00,,,0.00,weatherlink.com 1.10,2013-02-15 16:18:00,
2013-02-15 11:32:00,53.4,34.0,30.09,East,93,6.0,9.0,49,0.00,,,0.00,weatherlink.com 1.10,2013-02-15 16:32:00,
2013-02-15 11:48:00,54.6,33.0,30.09,SSW,192,6.0,8.0,44,0.00,,,0.00,weatherlink.com 1.10,2013-02-15 16:48:00,
2013-02-15 12:03:00,55.3,32.0,30.08,SW,214,3.0,8.0,41,0.00,,,0.00,weatherlink.com 1.10,2013-02-15 17:03:00,
2013-02-15 12:18:00,55.4,32.0,30.07,SE,138,2.0,9.0,41,0.00,,,0.00,weatherlink.com 1.10,2013-02-15 17:18:00,
2013-02-15 12:33:00,56.4,32.0,30.06,SE,145,4.0,10.0,40,0.00,,,0.00,weatherlink.com 1.10,2013-02-15 17:33:00,
2013-02-15 12:47:00,56.9,32.0,30.05,SSW,197,2.0,10.0,39,0.00,,,0.00,weatherlink.com 1.10,2013-02-15 17:47:00,
2013-02-15 13:03:00,57.4,32.0,30.04,SSE,156,3.0,7.0,38,0.00,,,0.00,weatherlink.com 1.10,2013-02-15 18:03:00,
2013-02-15 13:19:00,58.0,33.0,30.03,SSW,195,4.0,9.0,39,0.00,,,0.00,weatherlink.com 1.10,2013-02-15 18:19:00,
2013-02-15 13:33:00,57.9,32.0,30.02,SW,219,2.0,10.0,38,0.00,,,0.00,weatherlink.com 1.10,2013-02-15 18:33:00,
2013-02-15 13:48:00,59.1,33.0,30.01,SE,132,2.0,11.0,37,0.00,,,0.00,weatherlink.com 1.10,2013-02-15 18:48:00,
2013-02-15 14:03:00,58.7,32.0,30.00,WSW,248,2.0,6.0,36,0.00,,,0.00,weatherlink.com 1.10,2013-02-15 19:03:00,
2013-02-15 14:19:00,59.3,31.0,30.00,SW,224,4.0,5.0,35,0.00,,,0.00,weatherlink.com 1.10,2013-02-15 19:19:00,
2013-02-15 14:34:00,60.1,31.0,29.99,SE,139,3.0,10.0,33,0.00,,,0.00,weatherlink.com 1.10,2013-02-15 19:34:00,
2013-02-15 14:49:00,59.1,31.0,29.99,SE,128,0.0,5.0,34,0.00,,,0.00,weatherlink.com 1.10,2013-02-15 19:49:00,
2013-02-15 15:04:00,57.4,30.0,29.97,SW,220,0.0,5.0,35,0.00,,,0.00,weatherlink.com 1.10,2013-02-15 20:04:00,
2013-02-15 15:20:00,57.0,30.0,29.97,SSW,207,2.0,5.0,36,0.00,,,0.00,weatherlink.com 1.10,2013-02-15 20:20:00,
2013-02-15 15:34:00,57.0,30.0,29.97,WNW,291,4.0,4.0,36,0.00,,,0.00,weatherlink.com 1.10,2013-02-15 20:34:00,
2013-02-15 15:49:00,56.6,30.0,29.97,West,266,2.0,6.0,37,0.00,,,0.00,weatherlink.com 1.10,2013-02-15 20:49:00,
2013-02-15 16:04:00,56.0,31.0,29.97,West,271,1.0,5.0,38,0.00,,,0.00,weatherlink.com 1.10,2013-02-15 21:04:00,
2013-02-15 16:19:00,55.4,31.0,29.98,NW,309,2.0,6.0,40,0.00,,,0.00,weatherlink.com 1.10,2013-02-15 21:19:00,
2013-02-15 16:34:00,54.6,31.0,29.97,SW,215,0.0,4.0,41,0.00,,,0.00,weatherlink.com 1.10,2013-02-15 21:34:00,
2013-02-15 16:49:00,54.3,32.0,29.98,NW,317,5.0,5.0,43,0.00,,,0.00,weatherlink.com 1.10,2013-02-15 21:49:00,
2013-02-15 17:04:00,53.6,34.0,29.98,NNW,341,1.0,5.0,48,0.00,,,0.00,weatherlink.com 1.10,2013-02-15 22:04:00,
2013-02-15 17:19:00,52.6,34.0,29.98,West,266,1.0,6.0,50,0.00,,,0.00,weatherlink.com 1.10,2013-02-15 22:19:00,
2013-02-15 17:34:00,52.0,35.0,29.98,NW,323,1.0,7.0,53,0.00,,,0.00,weatherlink.com 1.10,2013-02-15 22:34:00,
2013-02-15 17:49:00,51.3,36.0,29.98,NW,307,0.0,7.0,57,0.00,,,0.00,weatherlink.com 1.10,2013-02-15 22:49:00,
2013-02-15 18:04:00,50.6,36.0,29.99,SSE,162,0.0,2.0,58,0.00,,,0.00,weatherlink.com 1.10,2013-02-15 23:04:00,
2013-02-15 18:19:00,50.3,37.0,29.99,West,269,1.0,4.0,61,0.00,,,0.00,weatherlink.com 1.10,2013-02-15 23:19:00,
2013-02-15 18:34:00,49.8,38.0,30.00,West,269,2.0,9.0,63,0.00,,,0.00,weatherlink.com 1.10,2013-02-15 23:34:00,
2013-02-15 18:49:00,49.1,37.0,30.01,West,276,2.0,9.0,64,0.00,,,0.00,weatherlink.com 1.10,2013-02-15 23:49:00,
2013-02-15 19:04:00,48.7,38.0,30.01,WNW,293,3.0,5.0,66,0.00,,,0.00,weatherlink.com 1.10,2013-02-16 00:04:00,
2013-02-15 19:19:00,47.5,37.0,30.02,WNW,297,2.0,9.0,68,0.00,,,0.00,weatherlink.com 1.10,2013-02-16 00:19:00,
2013-02-15 19:34:00,46.4,37.0,30.02,NNW,333,2.0,7.0,69,0.00,,,0.00,weatherlink.com 1.10,2013-02-16 00:34:00,
2013-02-15 19:49:00,46.2,37.0,30.03,NNW,332,4.0,7.0,70,0.00,,,0.00,weatherlink.com 1.10,2013-02-16 00:49:00,
2013-02-15 20:04:00,45.8,37.0,30.02,North,360,3.0,7.0,70,0.00,,,0.00,weatherlink.com 1.10,2013-02-16 01:04:00,
2013-02-15 20:19:00,45.3,36.0,30.02,NW,316,4.0,7.0,71,0.00,,,0.00,weatherlink.com 1.10,2013-02-16 01:19:00,
2013-02-15 20:34:00,44.4,35.0,30.03,NW,322,1.0,10.0,70,0.00,,,0.00,weatherlink.com 1.10,2013-02-16 01:34:00,
2013-02-15 20:49:00,44.1,34.0,30.04,WNW,291,0.0,6.0,69,0.00,,,0.00,weatherlink.com 1.10,2013-02-16 01:49:00,
2013-02-15 21:04:00,43.9,33.0,30.04,NNW,332,1.0,9.0,66,0.00,,,0.00,weatherlink.com 1.10,2013-02-16 02:04:00,
2013-02-15 21:19:00,43.4,33.0,30.04,NNW,333,3.0,6.0,66,0.00,,,0.00,weatherlink.com 1.10,2013-02-16 02:19:00,
2013-02-15 21:34:00,43.0,32.0,30.04,NW,306,2.0,6.0,66,0.00,,,0.00,weatherlink.com 1.10,2013-02-16 02:34:00,
2013-02-15 21:49:00,42.6,32.0,30.04,NNW,330,1.0,3.0,67,0.00,,,0.00,weatherlink.com 1.10,2013-02-16 02:49:00,
2013-02-15 22:04:00,42.0,32.0,30.04,NNW,338,0.0,3.0,67,0.00,,,0.00,weatherlink.com 1.10,2013-02-16 03:04:00,
2013-02-15 22:19:00,41.5,31.0,30.04,North,356,6.0,8.0,66,0.00,,,0.00,weatherlink.com 1.10,2013-02-16 03:19:00,
2013-02-15 22:34:00,41.1,30.0,30.04,North,11,1.0,5.0,65,0.00,,,0.00,weatherlink.com 1.10,2013-02-16 03:34:00,
2013-02-15 22:49:00,40.9,29.0,30.05,WNW,283,6.0,6.0,63,0.00,,,0.00,weatherlink.com 1.10,2013-02-16 03:49:00,
2013-02-15 23:04:00,40.5,29.0,30.04,NW,307,3.0,7.0,64,0.00,,,0.00,weatherlink.com 1.10,2013-02-16 04:04:00,
2013-02-15 23:19:00,40.0,29.0,30.04,WNW,300,2.0,5.0,65,0.00,,,0.00,weatherlink.com 1.10,2013-02-16 04:19:00,
2013-02-15 23:34:00,39.5,29.0,30.03,NNW,339,1.0,3.0,66,0.00,,,0.00,weatherlink.com 1.10,2013-02-16 04:34:00,
2013-02-15 23:49:00,39.4,29.0,30.03,NW,311,1.0,5.0,67,0.00,,,0.00,weatherlink.com 1.10,2013-02-16 04:49:00,